Home   Weather   Memphis   Past weeks

Flag for USA Past Weather in Memphis, Tennessee, USA — Yesterday and Last 2 Weeks

Now
56 °F

Clear.


Feels Like: 53 °F
Forecast: 50 / 58 °F
Wind: 10 mph from East

Location: Memphis International Airport

Current Time: Jan 22, 2017 at 4:14:09 am

Latest Report: Jan 22, 2017 at 3:54 am


Visibility: 10 mi

Pressure: 29.36 "Hg

Humidity: 97%

Dew Point: 55 °F

Location of MemphisLocation

Past Weather in Memphis — Graph

°F

Memphis Temperature Yesterday

Maximum temperature yesterday: 71 °F (at 11:54 am)
Minimum temperature yesterday: 60 °F (at 1:54 am)
Average temperature yesterday: 65 °F

High & Low Weather Summary for the Past Weeks

 TemperatureHumidityPressure
High75 °F (Jan 12, 2:22 pm)100% (Jan 13, 6:31 am)30.82 "Hg (Jan 13, 6:31 am)
Low13 °F (Jan 8, 4:54 am)37% (Jan 9, 11:54 am)29.38 "Hg (Jan 22, 1:54 am)
Average53 °F81%30.14 "Hg
* Reported Jan 7 3:54 am — Jan 22 3:11 am, Memphis, Weather by CustomWeather, © 2017

Note: Actual official high and low records may vary slightly from our data, if they occured in-between our weather recording intervals... More about our weather records

Advertising

Memphis Weather History for the Previous 24 Hours

Scroll right to see more
 ConditionsComfort  
Time TempWeatherWind HumidityBarometerVisibility
3:11 am
Sun, Jan 22
55 °FRain. Fog.17 mph100%29.39 "Hg5 mi
2:54 am56 °FRain. Fog.8 mph93%29.45 "Hg5 mi
2:30 am55 °FRain. Fog.6 mph94%29.45 "Hg5 mi
1:54 am57 °FHeavy rain. Fog.17 mph90%29.38 "Hg5 mi
1:30 am57 °FHeavy rain. Fog.15 mph94%29.40 "Hg5 mi
12:54 am61 °FThunderstorms. Overcast.12 mph83%29.44 "Hg8 mi
12:06 am61 °FThunderstorms. Mostly cloudy.6 mph83%29.44 "Hg10 mi
11:54 pm
Sat, Jan 21
62 °FPartly cloudy.6 mph78%29.44 "Hg10 mi
10:54 pm62 °FPassing clouds.8 mph75%29.44 "Hg10 mi
9:54 pm62 °FPassing clouds.9 mph75%29.48 "Hg10 mi
8:54 pm63 °FMostly cloudy.9 mph70%29.50 "Hg10 mi
7:54 pm64 °FOvercast.5 mph68%29.54 "Hg10 mi
6:54 pm64 °FPassing clouds.7 mph65%29.54 "Hg10 mi
5:54 pm65 °FPassing clouds.7 mph61%29.53 "Hg10 mi
4:54 pm67 °FPartly cloudy.8 mph59%29.54 "Hg10 mi
3:54 pm69 °FScattered clouds.7 mph55%29.54 "Hg10 mi
2:54 pm71 °FScattered clouds.10 mph51%29.56 "Hg10 mi
1:54 pm69 °FBroken clouds.12 mph55%29.57 "Hg10 mi
12:54 pm71 °FScattered clouds.14 mph53%29.60 "Hg10 mi
11:54 am71 °FScattered clouds.16 mph53%29.62 "Hg10 mi
10:54 am69 °FPassing clouds.14 mph55%29.67 "Hg10 mi
9:54 am66 °FPassing clouds.16 mph61%29.68 "Hg10 mi
8:54 am63 °FScattered clouds.12 mph68%29.67 "Hg10 mi
7:54 am61 °FBroken clouds.9 mph75%29.66 "Hg10 mi
6:54 am63 °FMostly cloudy.13 mph75%29.64 "Hg10 mi
5:54 am62 °FLight rain. Mostly cloudy.9 mph83%29.67 "Hg9 mi
4:54 am66 °FMostly cloudy.8 mph65%29.65 "Hg10 mi
Weather by CustomWeather, © 2017

See weather overviewHow to use our weather pages